SVR773 USSS-LTFM

Flight info

Callsign SVR773
Flight time N/A
Altitude 34000
Route K0839F360 MIKUS6J MIKUS T374 IMANA L992 AKB/K0839F360 Z210 KODUM N996 AKT N37 IPLED G96 MKL A955 LURIS DCT SARPI UN37 TBN UW71 CRM UL746 INB DCT GUMRU UT315 NUGBA
Aircraft A320/M-SDE2FGHIJ1RUWY/SB1

Departure

Time N/A
Airport Koltsovo Airport (USSS)

Arrival

Time 2026-02-17 15:07
Airport İstanbul Airport (LTFM)
Time Latitude Longitude Altitude Speed Heading
2026-02-17 13:49 41.08925 38.78702 35770 ft 392 kts 266°
2026-02-17 13:49 41.09568 38.71517 35763 ft 392 kts 266°
2026-02-17 13:50 41.10202 38.64330 35761 ft 393 kts 266°
2026-02-17 13:51 41.11122 38.53539 35764 ft 393 kts 265°
2026-02-17 13:51 41.11716 38.46335 35778 ft 393 kts 266°
2026-02-17 13:52 41.12312 38.39117 35760 ft 395 kts 266°
2026-02-17 13:52 41.12912 38.31871 35752 ft 396 kts 266°
2026-02-17 13:53 41.13507 38.24597 35756 ft 397 kts 266°
2026-02-17 13:53 41.14108 38.17320 35760 ft 397 kts 266°
2026-02-17 13:54 41.14708 38.10026 35778 ft 398 kts 267°
2026-02-17 13:54 41.15299 38.02750 35763 ft 399 kts 267°
2026-02-17 13:55 41.16178 37.91747 35762 ft 400 kts 267°
2026-02-17 13:55 41.16764 37.84397 35765 ft 401 kts 267°
2026-02-17 13:56 41.17285 37.78280 35765 ft 401 kts 268°
2026-02-17 13:56 41.17921 37.70915 35782 ft 402 kts 268°
2026-02-17 13:57 41.18539 37.63532 35768 ft 402 kts 268°
2026-02-17 13:57 41.19052 37.56152 35761 ft 400 kts 266°
2026-02-17 13:58 41.19475 37.48776 35754 ft 402 kts 267°
2026-02-17 13:59 41.20303 37.37669 35767 ft 403 kts 267°
2026-02-17 13:59 41.20872 37.30266 35765 ft 403 kts 268°
2026-02-17 14:00 41.21412 37.22849 35760 ft 404 kts 267°
2026-02-17 14:00 41.21972 37.15429 35748 ft 404 kts 268°
2026-02-17 14:01 41.22563 37.07996 35746 ft 404 kts 268°
2026-02-17 14:01 41.23141 37.00575 35734 ft 404 kts 268°
2026-02-17 14:02 41.23710 36.93137 35735 ft 405 kts 268°
2026-02-17 14:02 41.24270 36.85686 35710 ft 405 kts 268°
2026-02-17 14:03 41.25104 36.74498 35700 ft 406 kts 268°
2026-02-17 14:03 41.25651 36.67038 35694 ft 406 kts 268°
2026-02-17 14:04 41.26194 36.59571 35717 ft 406 kts 268°
2026-02-17 14:04 41.26749 36.52092 35721 ft 407 kts 269°
2026-02-17 14:05 41.27325 36.44651 35716 ft 407 kts 269°
2026-02-17 14:05 41.27901 36.37153 35713 ft 407 kts 269°
2026-02-17 14:06 41.28472 36.29657 35711 ft 408 kts 269°
2026-02-17 14:07 41.29307 36.18404 35742 ft 408 kts 269°
2026-02-17 14:07 41.29862 36.10898 35727 ft 408 kts 269°
2026-02-17 14:08 41.30413 36.03375 35710 ft 409 kts 269°
2026-02-17 14:08 41.30961 35.95847 35706 ft 409 kts 269°
2026-02-17 14:09 41.31498 35.88316 35701 ft 409 kts 269°
2026-02-17 14:09 41.32029 35.80813 35721 ft 410 kts 269°
2026-02-17 14:10 41.32563 35.73259 35710 ft 410 kts 269°
2026-02-17 14:10 41.33087 35.65698 35708 ft 411 kts 269°
2026-02-17 14:11 41.33867 35.54351 35703 ft 410 kts 269°
2026-02-17 14:11 41.34387 35.46786 35703 ft 410 kts 269°
2026-02-17 14:12 41.34898 35.39225 35697 ft 410 kts 269°
2026-02-17 14:12 41.35402 35.31665 35708 ft 410 kts 268°
2026-02-17 14:13 41.35901 35.24103 35703 ft 410 kts 268°
2026-02-17 14:13 41.36396 35.16557 35705 ft 409 kts 268°
2026-02-17 14:14 41.36885 35.09007 35715 ft 410 kts 268°
2026-02-17 14:15 41.37609 34.97649 35708 ft 411 kts 268°
2026-02-17 14:15 41.38087 34.90062 35695 ft 411 kts 268°
2026-02-17 14:16 41.38567 34.82454 35678 ft 413 kts 268°
2026-02-17 14:16 41.39011 34.75293 35682 ft 415 kts 268°
2026-02-17 14:17 41.39480 34.67623 35693 ft 416 kts 268°
2026-02-17 14:17 41.39946 34.59996 35680 ft 416 kts 268°
2026-02-17 14:18 41.40404 34.52295 35671 ft 417 kts 268°
2026-02-17 14:18 41.40855 34.44585 35671 ft 418 kts 268°
2026-02-17 14:19 41.41528 34.32999 35703 ft 419 kts 268°
2026-02-17 14:19 41.41973 34.25253 35696 ft 419 kts 268°
2026-02-17 14:20 41.42304 34.19487 35689 ft 419 kts 268°
2026-02-17 14:20 41.42747 34.11740 35690 ft 419 kts 268°
2026-02-17 14:21 41.43175 34.03993 35691 ft 419 kts 268°
2026-02-17 14:21 41.43596 33.96244 35728 ft 420 kts 268°
2026-02-17 14:22 41.44228 33.84637 35714 ft 420 kts 268°
2026-02-17 14:23 41.44847 33.72980 35674 ft 420 kts 268°
2026-02-17 14:23 41.45255 33.65198 35671 ft 420 kts 268°
2026-02-17 14:24 41.45658 33.57426 35688 ft 421 kts 268°
2026-02-17 14:24 41.46054 33.49633 35674 ft 421 kts 267°
2026-02-17 14:25 41.46441 33.41838 35667 ft 422 kts 267°
2026-02-17 14:25 41.46829 33.34036 35663 ft 422 kts 267°
2026-02-17 14:26 41.47211 33.26229 35654 ft 422 kts 267°
2026-02-17 14:27 41.47741 33.14521 35665 ft 422 kts 267°
2026-02-17 14:27 41.48076 33.06696 35654 ft 422 kts 267°
2026-02-17 14:28 41.48409 32.98875 35646 ft 423 kts 267°
2026-02-17 14:28 41.48738 32.91087 35646 ft 423 kts 267°
2026-02-17 14:29 41.49064 32.83253 35668 ft 423 kts 267°
2026-02-17 14:29 41.49384 32.75411 35657 ft 424 kts 267°
2026-02-17 14:30 41.49700 32.67561 35647 ft 423 kts 266°
2026-02-17 14:31 41.50313 32.51870 35634 ft 424 kts 266°
2026-02-17 14:31 41.50610 32.44053 35654 ft 425 kts 267°
2026-02-17 14:32 41.50904 32.36181 35630 ft 425 kts 267°
2026-02-17 14:32 41.51194 32.28297 35619 ft 426 kts 266°
2026-02-17 14:33 41.51478 32.20404 35616 ft 426 kts 267°
2026-02-17 14:33 41.51896 32.08552 35621 ft 426 kts 266°
2026-02-17 14:34 41.52167 32.00646 35641 ft 426 kts 267°
2026-02-17 14:35 41.52563 31.88783 35632 ft 426 kts 267°
2026-02-17 14:35 41.52819 31.80926 35633 ft 426 kts 267°
2026-02-17 14:36 41.53071 31.73019 35630 ft 427 kts 267°
2026-02-17 14:36 41.53317 31.65109 35629 ft 426 kts 267°
2026-02-17 14:37 41.53559 31.57198 35624 ft 426 kts 267°
2026-02-17 14:37 41.53794 31.49289 35624 ft 426 kts 267°
2026-02-17 14:38 41.54023 31.41378 35621 ft 426 kts 267°
2026-02-17 14:38 41.54256 31.33467 35620 ft 427 kts 268°
2026-02-17 14:39 41.55697 31.21662 35633 ft 432 kts 274°
2026-02-17 14:39 41.56517 31.13778 35538 ft 421 kts 270°
2026-02-17 14:40 41.56782 31.09928 35018 ft 414 kts 269°
2026-02-17 14:40 41.56992 31.06082 34169 ft 415 kts 269°
2026-02-17 14:40 41.57373 30.98423 32746 ft 410 kts 270°
2026-02-17 14:41 41.57582 30.94638 32148 ft 405 kts 270°
2026-02-17 14:41 41.57803 30.90923 31620 ft 398 kts 271°
2026-02-17 14:41 41.58030 30.87267 31042 ft 393 kts 271°
2026-02-17 14:41 41.58241 30.83655 30470 ft 388 kts 271°
2026-02-17 14:42 41.58477 30.80079 29914 ft 384 kts 272°
2026-02-17 14:42 41.58662 30.77606 29512 ft 382 kts 272°
2026-02-17 14:42 41.58902 30.74432 28928 ft 378 kts 272°
2026-02-17 14:43 41.59144 30.68665 27939 ft 368 kts 263°
2026-02-17 14:43 41.59075 30.65251 27667 ft 369 kts 268°
2026-02-17 14:43 41.59177 30.61816 27394 ft 371 kts 270°
2026-02-17 14:43 41.59355 30.58372 27141 ft 371 kts 270°
2026-02-17 14:44 41.59542 30.54953 26875 ft 368 kts 270°
2026-02-17 14:44 41.59707 30.51514 26609 ft 377 kts 270°
2026-02-17 14:44 41.59841 30.47977 26345 ft 383 kts 269°
2026-02-17 14:44 41.59950 30.44420 26084 ft 384 kts 269°
2026-02-17 14:45 41.60043 30.40857 25814 ft 384 kts 269°
2026-02-17 14:45 41.60128 30.37291 25562 ft 383 kts 269°
2026-02-17 14:45 41.60212 30.33740 25308 ft 382 kts 269°
2026-02-17 14:45 41.60297 30.30199 25057 ft 382 kts 269°
2026-02-17 14:46 41.60384 30.26660 24738 ft 381 kts 269°
2026-02-17 14:46 41.60473 30.23125 24292 ft 379 kts 269°
2026-02-17 14:46 41.60561 30.19601 23874 ft 378 kts 269°
2026-02-17 14:47 41.60735 30.12597 22980 ft 377 kts 269°
2026-02-17 14:47 41.60837 30.09094 22482 ft 376 kts 271°
2026-02-17 14:47 41.61185 30.05644 21989 ft 375 kts 276°
2026-02-17 14:47 41.61647 30.02214 21496 ft 373 kts 276°
2026-02-17 14:48 41.62048 29.98803 20989 ft 370 kts 274°
2026-02-17 14:48 41.62329 29.95399 20495 ft 367 kts 271°
2026-02-17 14:48 41.62496 29.92017 20009 ft 364 kts 270°
2026-02-17 14:48 41.62589 29.88642 19529 ft 362 kts 268°
2026-02-17 14:49 41.62663 29.85297 19058 ft 360 kts 268°
2026-02-17 14:49 41.62757 29.81961 18600 ft 359 kts 270°
2026-02-17 14:49 41.62954 29.78680 18148 ft 358 kts 272°
2026-02-17 14:49 41.63175 29.75330 17665 ft 356 kts 271°
2026-02-17 14:50 41.63358 29.72086 17152 ft 353 kts 270°
2026-02-17 14:50 41.63498 29.68816 16642 ft 351 kts 269°
2026-02-17 14:50 41.63600 29.65572 16132 ft 348 kts 268°
2026-02-17 14:51 41.63741 29.59161 15159 ft 342 kts 268°
2026-02-17 14:51 41.63805 29.55986 14681 ft 340 kts 268°
2026-02-17 14:51 41.63869 29.52837 14201 ft 338 kts 268°
2026-02-17 14:51 41.63936 29.49716 13818 ft 335 kts 268°
2026-02-17 14:52 41.64004 29.46607 13491 ft 333 kts 268°
2026-02-17 14:52 41.64083 29.43516 13131 ft 333 kts 269°
2026-02-17 14:52 41.64210 29.40427 12751 ft 332 kts 269°
2026-02-17 14:52 41.64365 29.37352 12387 ft 331 kts 269°
2026-02-17 14:53 41.64528 29.34294 12017 ft 330 kts 269°
2026-02-17 14:53 41.64689 29.31238 11680 ft 328 kts 269°
2026-02-17 14:53 41.64837 29.28199 11345 ft 327 kts 269°
2026-02-17 14:53 41.64984 29.25170 11018 ft 326 kts 269°
2026-02-17 14:54 41.65069 29.22154 10682 ft 323 kts 265°
2026-02-17 14:54 41.65072 29.19158 10352 ft 321 kts 265°
2026-02-17 14:54 41.65078 29.16180 10072 ft 316 kts 265°
2026-02-17 14:55 41.65211 29.10601 10027 ft 284 kts 267°
2026-02-17 14:55 41.65315 29.08009 9845 ft 278 kts 267°
2026-02-17 14:55 41.65427 29.05425 9442 ft 278 kts 268°
2026-02-17 14:55 41.65563 29.02849 9043 ft 277 kts 268°
2026-02-17 14:56 41.65705 29.00283 8644 ft 276 kts 268°
2026-02-17 14:56 41.65840 28.97764 8254 ft 274 kts 268°
2026-02-17 14:56 41.65966 28.95223 7814 ft 274 kts 268°
2026-02-17 14:56 41.66086 28.92678 7371 ft 273 kts 268°
2026-02-17 14:57 41.66199 28.90147 6941 ft 273 kts 268°
2026-02-17 14:57 41.66309 28.87621 6516 ft 272 kts 268°
2026-02-17 14:57 41.66417 28.85106 6100 ft 271 kts 268°
2026-02-17 14:57 41.66524 28.82604 5761 ft 266 kts 268°
2026-02-17 14:58 41.66591 28.80159 5393 ft 259 kts 260°
2026-02-17 14:58 41.66178 28.77933 5247 ft 238 kts 240°
2026-02-17 14:58 41.65310 28.76154 5091 ft 221 kts 223°
2026-02-17 14:59 41.62871 28.74201 5015 ft 200 kts 200°
2026-02-17 14:59 41.61574 28.73537 5013 ft 200 kts 201°
2026-02-17 14:59 41.60277 28.72863 5011 ft 200 kts 201°
2026-02-17 14:59 41.58969 28.72248 5013 ft 200 kts 191°
2026-02-17 15:00 41.57578 28.72174 5013 ft 200 kts 182°
2026-02-17 15:00 41.56209 28.72196 5013 ft 196 kts 181°
2026-02-17 15:00 41.54848 28.72219 4993 ft 196 kts 181°
2026-02-17 15:00 41.53494 28.72245 4816 ft 192 kts 181°
2026-02-17 15:01 41.52618 28.72262 4666 ft 189 kts 181°
2026-02-17 15:01 41.50879 28.72296 4341 ft 185 kts 182°
2026-02-17 15:01 41.49617 28.72320 4102 ft 183 kts 182°
2026-02-17 15:01 41.48336 28.72345 3848 ft 181 kts 182°
2026-02-17 15:02 41.47105 28.72370 3625 ft 176 kts 181°
2026-02-17 15:02 41.45886 28.72394 3368 ft 170 kts 182°
2026-02-17 15:02 41.44722 28.72416 3142 ft 164 kts 181°
2026-02-17 15:03 41.42523 28.72459 2731 ft 154 kts 181°
2026-02-17 15:03 41.41465 28.72480 2524 ft 150 kts 181°
2026-02-17 15:03 41.40438 28.72500 2321 ft 145 kts 180°
2026-02-17 15:03 41.39469 28.72518 2131 ft 134 kts 180°
2026-02-17 15:04 41.38553 28.72536 1979 ft 130 kts 180°
2026-02-17 15:04 41.37654 28.72553 1779 ft 129 kts 180°
2026-02-17 15:04 41.36753 28.72571 1613 ft 130 kts 180°
2026-02-17 15:04 41.35857 28.72588 1437 ft 129 kts 179°
2026-02-17 15:05 41.34956 28.72606 1265 ft 129 kts 179°
2026-02-17 15:05 41.34057 28.72623 1076 ft 128 kts 178°
2026-02-17 15:05 41.33167 28.72640 899 ft 128 kts 179°
2026-02-17 15:05 41.32279 28.72654 749 ft 127 kts 178°
2026-02-17 15:06 41.31393 28.72666 614 ft 128 kts 179°
2026-02-17 15:06 41.30506 28.72683 457 ft 128 kts 180°
2026-02-17 15:06 41.29614 28.72698 358 ft 127 kts 179°
2026-02-17 15:07 41.28331 28.72727 332 ft 58 kts 179°
2026-02-17 15:07 41.27978 28.72737 333 ft 39 kts 177°
2026-02-17 15:07 41.27797 28.72818 334 ft 19 kts 150°
2026-02-17 15:07 41.27716 28.72883 334 ft 11 kts 149°
2026-02-17 15:08 41.27659 28.72927 334 ft 8 kts 149°
2026-02-17 15:08 41.27614 28.72957 331 ft 6 kts 156°
2026-02-17 15:08 41.27538 28.72976 332 ft 14 kts 176°
2026-02-17 15:08 41.27441 28.72978 334 ft 14 kts 179°
2026-02-17 15:09 41.27338 28.72979 330 ft 15 kts 179°
2026-02-17 15:09 41.27229 28.72980 334 ft 16 kts 180°
2026-02-17 15:09 41.27110 28.72981 333 ft 18 kts 178°
2026-02-17 15:09 41.27005 28.72987 332 ft 13 kts 178°
2026-02-17 15:10 41.26952 28.73048 332 ft 12 kts 88°
2026-02-17 15:10 41.26957 28.73148 331 ft 7 kts 85°
2026-02-17 15:10 41.26958 28.73212 332 ft 7 kts 89°
2026-02-17 15:11 41.26957 28.73395 333 ft 12 kts 91°
2026-02-17 15:11 41.26958 28.73503 332 ft 11 kts 88°
2026-02-17 15:11 41.26960 28.73598 334 ft 10 kts 89°
2026-02-17 15:11 41.26961 28.73676 334 ft 6 kts 89°
2026-02-17 15:12 41.26962 28.73705 334 ft 2 kts 90°
2026-02-17 15:12 41.26962 28.73722 334 ft 2 kts 90°
2026-02-17 15:12 41.26962 28.73782 334 ft 11 kts 90°
2026-02-17 15:12 41.26962 28.73877 334 ft 10 kts 90°
2026-02-17 15:13 41.26963 28.73960 334 ft 8 kts 91°
2026-02-17 15:13 41.26935 28.74011 333 ft 8 kts 161°
2026-02-17 15:13 41.26903 28.74015 333 ft 5 kts 176°
2026-02-17 15:13 41.26862 28.74017 332 ft 7 kts 180°
2026-02-17 15:14 41.26805 28.74017 334 ft 9 kts 180°
2026-02-17 15:14 41.26761 28.74019 330 ft 4 kts 178°
2026-02-17 15:14 41.26725 28.74020 334 ft 6 kts 178°